Year,Month,Day,Hour,Minute,Value (Times are PST for windspeed in km/hr)
2012,01,22,00,00,8.90
2012,01,22,00,01,7.60
2012,01,22,00,02,8.70
2012,01,22,00,03,8.10
2012,01,22,00,04,10.50
2012,01,22,00,05,11.40
2012,01,22,00,06,9.70
2012,01,22,00,07,10.20
2012,01,22,00,08,7.50
2012,01,22,00,09,9.60
2012,01,22,00,10,6.10
2012,01,22,00,11,5.40
2012,01,22,00,12,6.80
2012,01,22,00,13,7.70
2012,01,22,00,14,6.10
2012,01,22,00,15,5.10
2012,01,22,00,16,4.30
2012,01,22,00,17,6.30
2012,01,22,00,18,6.00
2012,01,22,00,19,4.30
2012,01,22,00,20,2.30
2012,01,22,00,21,4.30
2012,01,22,00,22,6.10
2012,01,22,00,23,5.70
2012,01,22,00,24,3.50
2012,01,22,00,25,2.50
2012,01,22,00,26,3.50
2012,01,22,00,27,5.10
2012,01,22,00,28,3.60
2012,01,22,00,29,4.70
2012,01,22,00,30,4.30
2012,01,22,00,31,5.10
2012,01,22,00,32,3.00
2012,01,22,00,33,4.10
2012,01,22,00,34,7.90
2012,01,22,00,35,10.60
2012,01,22,00,36,5.50
2012,01,22,00,37,3.90
2012,01,22,00,38,4.40
2012,01,22,00,39,3.10
2012,01,22,00,40,2.50
2012,01,22,00,41,5.30
2012,01,22,00,42,5.80
2012,01,22,00,43,5.60
2012,01,22,00,44,5.60
2012,01,22,00,45,5.30
2012,01,22,00,46,3.90
2012,01,22,00,47,1.50
2012,01,22,00,48,2.10
2012,01,22,00,49,3.60
2012,01,22,00,50,2.70
2012,01,22,00,51,2.10
2012,01,22,00,52,5.10
2012,01,22,00,53,5.70
2012,01,22,00,54,3.70
2012,01,22,00,55,4.00
2012,01,22,00,56,2.80
2012,01,22,00,57,0.80
2012,01,22,00,58,2.50
2012,01,22,00,59,4.70
2012,01,22,01,00,1.50
2012,01,22,01,01,0.60
2012,01,22,01,02,0.00
2012,01,22,01,03,0.00
2012,01,22,01,04,0.00
2012,01,22,01,05,0.30
2012,01,22,01,06,0.20
2012,01,22,01,07,3.50
2012,01,22,01,08,5.80
2012,01,22,01,09,4.10
2012,01,22,01,10,1.60
2012,01,22,01,11,0.60
2012,01,22,01,12,3.20
2012,01,22,01,13,6.00
2012,01,22,01,14,3.10
2012,01,22,01,15,3.20
2012,01,22,01,16,3.20
2012,01,22,01,17,4.70
2012,01,22,01,18,6.70
2012,01,22,01,19,7.80
2012,01,22,01,20,7.40
2012,01,22,01,21,5.90
2012,01,22,01,22,4.90
2012,01,22,01,23,3.60
2012,01,22,01,24,4.60
2012,01,22,01,25,5.90
2012,01,22,01,26,4.70
2012,01,22,01,27,5.20
2012,01,22,01,28,1.90
2012,01,22,01,29,0.10
2012,01,22,01,30,0.00
2012,01,22,01,31,0.00
2012,01,22,01,32,0.90
2012,01,22,01,33,1.90
2012,01,22,01,34,3.20
2012,01,22,01,35,1.20
2012,01,22,01,36,5.30
2012,01,22,01,37,3.00
2012,01,22,01,38,0.50
2012,01,22,01,39,3.00
2012,01,22,01,40,0.10
2012,01,22,01,41,0.30
2012,01,22,01,42,0.40
2012,01,22,01,43,0.10
2012,01,22,01,44,0.00
2012,01,22,01,45,0.50
2012,01,22,01,46,0.30
2012,01,22,01,47,0.00
2012,01,22,01,48,0.00
2012,01,22,01,49,0.20
2012,01,22,01,50,0.00
2012,01,22,01,51,0.20
2012,01,22,01,52,0.00
2012,01,22,01,53,0.00
2012,01,22,01,54,0.00
2012,01,22,01,55,0.80
2012,01,22,01,56,1.60
2012,01,22,01,57,2.10
2012,01,22,01,58,3.40
2012,01,22,01,59,0.30
2012,01,22,02,00,1.60
2012,01,22,02,01,0.00
2012,01,22,02,02,0.00
2012,01,22,02,03,0.00
2012,01,22,02,04,0.00
2012,01,22,02,05,1.80
2012,01,22,02,06,3.00
2012,01,22,02,07,2.00
2012,01,22,02,08,1.90
2012,01,22,02,09,0.00
2012,01,22,02,10,3.50
2012,01,22,02,11,1.20
2012,01,22,02,12,0.20
2012,01,22,02,13,0.20
2012,01,22,02,14,0.30
2012,01,22,02,15,1.00
2012,01,22,02,16,1.30
2012,01,22,02,17,0.00
2012,01,22,02,18,0.10
2012,01,22,02,19,0.00
2012,01,22,02,20,0.00
2012,01,22,02,21,0.00
2012,01,22,02,22,0.00
2012,01,22,02,23,0.30
2012,01,22,02,24,0.00
2012,01,22,02,25,0.20
2012,01,22,02,26,0.20
2012,01,22,02,27,0.00
2012,01,22,02,28,0.00
2012,01,22,02,29,0.00
2012,01,22,02,30,0.00
2012,01,22,02,31,0.00
2012,01,22,02,32,1.30
2012,01,22,02,33,2.00
2012,01,22,02,34,0.00
2012,01,22,02,35,0.00
2012,01,22,02,36,0.00
2012,01,22,02,37,0.00
2012,01,22,02,38,0.20
2012,01,22,02,39,1.80
2012,01,22,02,40,0.00
2012,01,22,02,41,0.00
2012,01,22,02,42,0.00
2012,01,22,02,43,0.20
2012,01,22,02,44,2.00
2012,01,22,02,45,0.60
2012,01,22,02,46,0.00
2012,01,22,02,47,0.00
2012,01,22,02,48,0.00
2012,01,22,02,49,0.50
2012,01,22,02,50,0.00
2012,01,22,02,51,0.00
2012,01,22,02,52,0.00
2012,01,22,02,53,0.00
2012,01,22,02,54,0.00
2012,01,22,02,55,0.00
2012,01,22,02,56,0.00
2012,01,22,02,57,0.00
2012,01,22,02,58,0.00
2012,01,22,02,59,0.00
2012,01,22,03,00,0.00
2012,01,22,03,01,0.00
2012,01,22,03,02,0.00
2012,01,22,03,03,0.00
2012,01,22,03,04,0.00
2012,01,22,03,05,0.00
2012,01,22,03,06,0.10
2012,01,22,03,07,0.00
2012,01,22,03,08,0.00
2012,01,22,03,09,0.00
2012,01,22,03,10,0.00
2012,01,22,03,11,0.00
2012,01,22,03,12,0.00
2012,01,22,03,13,0.30
2012,01,22,03,14,0.80
2012,01,22,03,15,0.10
2012,01,22,03,16,0.20
2012,01,22,03,17,0.00
2012,01,22,03,18,0.00
2012,01,22,03,19,0.40
2012,01,22,03,20,0.00
2012,01,22,03,21,0.00
2012,01,22,03,22,0.30
2012,01,22,03,23,0.00
2012,01,22,03,24,0.00
2012,01,22,03,25,0.00
2012,01,22,03,26,0.00
2012,01,22,03,27,0.00
2012,01,22,03,28,0.00
2012,01,22,03,29,0.00
2012,01,22,03,30,0.00
2012,01,22,03,31,0.00
2012,01,22,03,32,0.00
2012,01,22,03,33,0.00
2012,01,22,03,34,0.00
2012,01,22,03,35,0.00
2012,01,22,03,36,0.30
2012,01,22,03,37,0.80
2012,01,22,03,38,2.70
2012,01,22,03,39,2.30
2012,01,22,03,40,0.20
2012,01,22,03,41,0.10
2012,01,22,03,42,0.00
2012,01,22,03,43,0.00
2012,01,22,03,44,1.90
2012,01,22,03,45,0.10
2012,01,22,03,46,0.00
2012,01,22,03,47,0.00
2012,01,22,03,48,1.60
2012,01,22,03,49,2.70
2012,01,22,03,50,0.40
2012,01,22,03,51,3.70
2012,01,22,03,52,2.70
2012,01,22,03,53,0.10
2012,01,22,03,54,4.70
2012,01,22,03,55,6.10
2012,01,22,03,56,6.10
2012,01,22,03,57,7.20
2012,01,22,03,58,7.00
2012,01,22,03,59,6.70
2012,01,22,04,00,3.00
2012,01,22,04,01,3.10
2012,01,22,04,02,2.00
2012,01,22,04,03,1.60
2012,01,22,04,04,2.30
2012,01,22,04,05,1.50
2012,01,22,04,06,0.50
2012,01,22,04,07,0.60
2012,01,22,04,08,0.00
2012,01,22,04,09,2.30
2012,01,22,04,10,4.70
2012,01,22,04,11,6.80
2012,01,22,04,12,5.40
2012,01,22,04,13,6.40
2012,01,22,04,14,1.20
2012,01,22,04,15,4.20
2012,01,22,04,16,1.70
2012,01,22,04,17,3.30
2012,01,22,04,18,1.80
2012,01,22,04,19,0.60
2012,01,22,04,20,0.00
2012,01,22,04,21,0.50
2012,01,22,04,22,2.70
2012,01,22,04,23,0.20
2012,01,22,04,24,0.00
2012,01,22,04,25,0.00
2012,01,22,04,26,0.00
2012,01,22,04,27,0.00
2012,01,22,04,28,0.00
2012,01,22,04,29,3.70
2012,01,22,04,30,3.30
2012,01,22,04,31,5.00
2012,01,22,04,32,5.30
2012,01,22,04,33,5.10
2012,01,22,04,34,3.20
2012,01,22,04,35,3.10
2012,01,22,04,36,8.20
2012,01,22,04,37,8.10
2012,01,22,04,38,6.00
2012,01,22,04,39,4.80
2012,01,22,04,40,4.80
2012,01,22,04,41,4.80
2012,01,22,04,42,4.80
2012,01,22,04,43,4.80
2012,01,22,04,44,6.60
2012,01,22,04,45,8.40
2012,01,22,04,46,4.40
2012,01,22,04,47,5.60
2012,01,22,04,48,3.50
2012,01,22,04,49,3.20
2012,01,22,04,50,4.10
2012,01,22,04,51,4.00
2012,01,22,04,52,6.70
2012,01,22,04,53,4.70
2012,01,22,04,54,4.50
2012,01,22,04,55,2.60
2012,01,22,04,56,3.00
2012,01,22,04,57,1.70
2012,01,22,04,58,0.30
2012,01,22,04,59,0.90
2012,01,22,05,00,1.20
2012,01,22,05,01,4.70
2012,01,22,05,02,7.60
2012,01,22,05,03,7.40
2012,01,22,05,04,5.80
2012,01,22,05,05,7.70
2012,01,22,05,06,5.60
2012,01,22,05,07,4.40
2012,01,22,05,08,7.70
2012,01,22,05,09,6.40
2012,01,22,05,10,9.70
2012,01,22,05,11,9.60
2012,01,22,05,12,9.20
2012,01,22,05,13,14.30
2012,01,22,05,14,11.80
2012,01,22,05,15,9.30
2012,01,22,05,16,15.60
2012,01,22,05,17,14.70
2012,01,22,05,18,10.80
2012,01,22,05,19,10.10
2012,01,22,05,20,12.30
2012,01,22,05,21,15.00
2012,01,22,05,22,13.30
2012,01,22,05,23,8.90
2012,01,22,05,24,8.20
2012,01,22,05,25,8.30
2012,01,22,05,26,14.30
2012,01,22,05,27,13.30
2012,01,22,05,28,6.80
2012,01,22,05,29,9.50
2012,01,22,05,30,8.90
2012,01,22,05,31,8.90
2012,01,22,05,32,13.10
2012,01,22,05,33,10.30
2012,01,22,05,34,12.20
2012,01,22,05,35,13.50
2012,01,22,05,36,11.60
2012,01,22,05,37,11.60
2012,01,22,05,38,10.40
2012,01,22,05,39,15.20
2012,01,22,05,40,12.40
2012,01,22,05,41,20.10
2012,01,22,05,42,13.80
2012,01,22,05,43,13.30
2012,01,22,05,44,13.40
2012,01,22,05,45,13.90
2012,01,22,05,46,19.30
2012,01,22,05,47,18.20
2012,01,22,05,48,10.10
2012,01,22,05,49,9.50
2012,01,22,05,50,10.10
2012,01,22,05,51,11.30
2012,01,22,05,52,12.80
2012,01,22,05,53,10.50
2012,01,22,05,54,6.00
2012,01,22,05,55,12.20
2012,01,22,05,56,10.50
2012,01,22,05,57,14.10
2012,01,22,05,58,14.60
2012,01,22,05,59,18.60
2012,01,22,06,00,10.50
2012,01,22,06,01,15.60
2012,01,22,06,02,13.60
2012,01,22,06,03,19.90
2012,01,22,06,04,14.50
2012,01,22,06,05,10.30
2012,01,22,06,06,11.90
2012,01,22,06,07,19.80
2012,01,22,06,08,14.10
2012,01,22,06,09,9.10
2012,01,22,06,10,10.50
2012,01,22,06,11,12.90
2012,01,22,06,12,14.60
2012,01,22,06,13,17.80
2012,01,22,06,14,15.90
2012,01,22,06,15,16.80
2012,01,22,06,16,19.10
2012,01,22,06,17,25.80
2012,01,22,06,18,17.90
2012,01,22,06,19,23.40
2012,01,22,06,20,21.50
2012,01,22,06,21,18.90
2012,01,22,06,22,26.30
2012,01,22,06,23,22.50
2012,01,22,06,24,22.50
2012,01,22,06,25,22.50
2012,01,22,06,26,22.50
2012,01,22,06,27,22.50
2012,01,22,06,28,20.80
2012,01,22,06,29,22.80
2012,01,22,06,30,24.60
2012,01,22,06,31,20.40
2012,01,22,06,32,20.50
2012,01,22,06,33,15.50
2012,01,22,06,34,21.60
2012,01,22,06,35,22.50
2012,01,22,06,36,24.70
2012,01,22,06,37,22.30
2012,01,22,06,38,18.90
2012,01,22,06,39,16.20
2012,01,22,06,40,16.90
2012,01,22,06,41,14.40
2012,01,22,06,42,12.10
2012,01,22,06,43,11.70
2012,01,22,06,44,18.70
2012,01,22,06,45,20.90
2012,01,22,06,46,22.50
2012,01,22,06,47,18.70
2012,01,22,06,48,13.80
2012,01,22,06,49,10.50
2012,01,22,06,50,19.40
2012,01,22,06,51,20.10
2012,01,22,06,52,24.50
2012,01,22,06,53,21.50
2012,01,22,06,54,23.10
2012,01,22,06,55,17.00
2012,01,22,06,56,15.70
2012,01,22,06,57,14.00
2012,01,22,06,58,20.20
2012,01,22,06,59,14.90
2012,01,22,07,00,21.60
2012,01,22,07,01,19.50
2012,01,22,07,02,15.30
2012,01,22,07,03,21.90
2012,01,22,07,04,24.10
2012,01,22,07,05,26.20
2012,01,22,07,06,18.30
2012,01,22,07,07,27.40
2012,01,22,07,08,22.90
2012,01,22,07,09,28.90
2012,01,22,07,10,22.30
2012,01,22,07,11,22.90
2012,01,22,07,12,24.40
2012,01,22,07,13,27.30
2012,01,22,07,14,22.00
2012,01,22,07,15,17.20
2012,01,22,07,16,22.10
2012,01,22,07,17,21.10
2012,01,22,07,18,20.50
2012,01,22,07,19,23.30
2012,01,22,07,20,25.20
2012,01,22,07,21,26.40
2012,01,22,07,22,20.00
2012,01,22,07,23,18.70
2012,01,22,07,24,23.90
2012,01,22,07,25,24.10
2012,01,22,07,26,20.60
2012,01,22,07,27,21.50
2012,01,22,07,28,26.90
2012,01,22,07,29,23.70
2012,01,22,07,30,31.00
2012,01,22,07,31,30.80
2012,01,22,07,32,26.10
2012,01,22,07,33,25.20
2012,01,22,07,34,18.80
2012,01,22,07,35,22.80
2012,01,22,07,36,13.50
2012,01,22,07,37,18.20
2012,01,22,07,38,22.20
2012,01,22,07,39,20.00
2012,01,22,07,40,17.80
2012,01,22,07,41,30.40
2012,01,22,07,42,16.30
2012,01,22,07,43,25.50
2012,01,22,07,44,17.30
2012,01,22,07,45,14.60
2012,01,22,07,46,16.80
2012,01,22,07,47,25.40
2012,01,22,07,48,24.60
2012,01,22,07,49,20.20
2012,01,22,07,50,23.90
2012,01,22,07,51,21.10
2012,01,22,07,52,20.10
2012,01,22,07,53,21.60
2012,01,22,07,54,25.40
2012,01,22,07,55,20.00
2012,01,22,07,56,25.30
2012,01,22,07,57,24.60
2012,01,22,07,58,20.60
2012,01,22,07,59,25.30
2012,01,22,08,00,23.70
2012,01,22,08,01,25.40
2012,01,22,08,02,20.80
2012,01,22,08,03,20.00
2012,01,22,08,04,17.70
2012,01,22,08,05,15.60
2012,01,22,08,06,10.00
2012,01,22,08,07,23.10
2012,01,22,08,08,19.70
2012,01,22,08,09,23.00
2012,01,22,08,10,19.90
2012,01,22,08,11,21.60
2012,01,22,08,12,17.10
2012,01,22,08,13,19.30
2012,01,22,08,14,19.00
2012,01,22,08,15,17.40
2012,01,22,08,16,17.40
2012,01,22,08,17,31.10
2012,01,22,08,18,20.40
2012,01,22,08,19,20.80
2012,01,22,08,20,23.40
2012,01,22,08,21,19.30
2012,01,22,08,22,20.40
2012,01,22,08,23,29.40
2012,01,22,08,24,31.30
2012,01,22,08,25,27.10
2012,01,22,08,26,25.50
2012,01,22,08,27,23.20
2012,01,22,08,28,23.40
2012,01,22,08,29,17.00
2012,01,22,08,30,14.50
2012,01,22,08,31,20.80
2012,01,22,08,32,19.50
2012,01,22,08,33,25.70
2012,01,22,08,34,20.60
2012,01,22,08,35,32.00
2012,01,22,08,36,21.50
2012,01,22,08,37,24.20
2012,01,22,08,38,23.80
2012,01,22,08,39,35.60
2012,01,22,08,40,39.80
2012,01,22,08,41,33.50
2012,01,22,08,42,30.60
2012,01,22,08,43,26.20
2012,01,22,08,44,34.00
2012,01,22,08,45,24.90
2012,01,22,08,46,29.50
2012,01,22,08,47,30.20
2012,01,22,08,48,30.10
2012,01,22,08,49,30.00
2012,01,22,08,50,28.10
2012,01,22,08,51,28.20
2012,01,22,08,52,25.70
2012,01,22,08,53,31.80
2012,01,22,08,54,33.30
2012,01,22,08,55,30.60
2012,01,22,08,56,20.80
2012,01,22,08,57,28.20
2012,01,22,08,58,26.20
2012,01,22,08,59,29.40
2012,01,22,09,00,23.20
2012,01,22,09,01,27.00
2012,01,22,09,02,34.30
2012,01,22,09,03,32.00
2012,01,22,09,04,32.80
2012,01,22,09,05,30.30
2012,01,22,09,06,23.90
2012,01,22,09,07,36.50
2012,01,22,09,08,27.90
2012,01,22,09,09,33.40
2012,01,22,09,10,27.90
2012,01,22,09,11,27.20
2012,01,22,09,12,21.30
2012,01,22,09,13,25.00
2012,01,22,09,14,22.40
2012,01,22,09,15,27.00
2012,01,22,09,16,28.90
2012,01,22,09,17,32.30
2012,01,22,09,18,32.70
2012,01,22,09,19,29.00
2012,01,22,09,20,26.00
2012,01,22,09,21,28.20
2012,01,22,09,22,29.60
2012,01,22,09,23,28.60
2012,01,22,09,24,30.30
2012,01,22,09,25,32.70
2012,01,22,09,26,25.30
2012,01,22,09,27,33.90
2012,01,22,09,28,28.80
2012,01,22,09,29,29.00
2012,01,22,09,30,34.20
2012,01,22,09,31,30.50
2012,01,22,09,32,34.00
2012,01,22,09,33,31.00
2012,01,22,09,34,24.90
2012,01,22,09,35,35.60
2012,01,22,09,36,33.00
2012,01,22,09,37,25.80
2012,01,22,09,38,33.20
2012,01,22,09,39,25.20
2012,01,22,09,40,28.10
2012,01,22,09,41,27.30
2012,01,22,09,42,26.40
2012,01,22,09,43,25.90
2012,01,22,09,44,39.90
2012,01,22,09,45,37.70
2012,01,22,09,46,33.60
2012,01,22,09,47,27.20
2012,01,22,09,48,35.30
2012,01,22,09,49,37.00
2012,01,22,09,50,25.70
2012,01,22,09,51,27.40
2012,01,22,09,52,32.80
2012,01,22,09,53,41.60
2012,01,22,09,54,29.70
2012,01,22,09,55,24.80
2012,01,22,09,56,28.00
2012,01,22,09,57,25.70
2012,01,22,09,58,25.70
2012,01,22,09,59,34.70
2012,01,22,10,00,31.10
2012,01,22,10,01,33.10
2012,01,22,10,02,35.10
2012,01,22,10,03,25.80
2012,01,22,10,04,32.10
2012,01,22,10,05,28.20
2012,01,22,10,06,32.10
2012,01,22,10,07,29.60
2012,01,22,10,08,31.90
2012,01,22,10,09,33.60
2012,01,22,10,10,30.20
2012,01,22,10,11,28.60
2012,01,22,10,12,27.80
2012,01,22,10,13,28.90
2012,01,22,10,14,38.70
2012,01,22,10,15,29.70
2012,01,22,10,16,29.00
2012,01,22,10,17,38.10
2012,01,22,10,18,26.10
2012,01,22,10,19,30.30
2012,01,22,10,20,30.00
2012,01,22,10,21,35.70
2012,01,22,10,22,32.70
2012,01,22,10,23,25.80
2012,01,22,10,24,38.10
2012,01,22,10,25,36.60
2012,01,22,10,26,30.40
2012,01,22,10,27,27.90
2012,01,22,10,28,30.70
2012,01,22,10,29,24.90
2012,01,22,10,30,28.20
2012,01,22,10,31,20.00
2012,01,22,10,32,26.10
2012,01,22,10,33,32.40
2012,01,22,10,34,33.80
2012,01,22,10,35,31.60
2012,01,22,10,36,35.20
2012,01,22,10,37,29.90
2012,01,22,10,38,30.50
2012,01,22,10,39,26.10
2012,01,22,10,40,32.30
2012,01,22,10,41,31.20
2012,01,22,10,42,28.80
2012,01,22,10,43,28.50
2012,01,22,10,44,28.20
2012,01,22,10,45,29.50
2012,01,22,10,46,36.30
2012,01,22,10,47,33.10
2012,01,22,10,48,28.60
2012,01,22,10,49,34.60
2012,01,22,10,50,34.70
2012,01,22,10,51,38.30
2012,01,22,10,52,32.50
2012,01,22,10,53,30.70
2012,01,22,10,54,34.10
2012,01,22,10,55,32.10
2012,01,22,10,56,34.80
2012,01,22,10,57,34.20
2012,01,22,10,58,38.80
2012,01,22,10,59,33.80
2012,01,22,11,01,37.40
2012,01,22,11,02,36.50
2012,01,22,11,03,42.60
2012,01,22,11,04,33.90
2012,01,22,11,05,32.00
2012,01,22,11,06,38.50
2012,01,22,11,07,44.50
2012,01,22,11,08,33.80
2012,01,22,11,09,43.20
2012,01,22,11,10,31.80
2012,01,22,11,11,38.20
2012,01,22,11,12,33.50
2012,01,22,11,13,29.30
2012,01,22,11,14,31.70
2012,01,22,11,15,27.40
2012,01,22,11,16,34.60
2012,01,22,11,17,31.90
2012,01,22,11,18,30.20
2012,01,22,11,19,33.20
2012,01,22,11,20,40.20
2012,01,22,11,21,29.00
2012,01,22,11,22,25.40
2012,01,22,11,23,30.00
2012,01,22,11,24,26.80
2012,01,22,11,25,33.60
2012,01,22,11,26,45.10
2012,01,22,11,27,30.10
2012,01,22,11,28,36.90
2012,01,22,11,29,38.60
2012,01,22,11,30,32.20
2012,01,22,11,31,34.70
2012,01,22,11,32,35.70
2012,01,22,11,33,35.60
2012,01,22,11,34,32.10
2012,01,22,11,35,32.10
2012,01,22,11,36,39.10
2012,01,22,11,37,36.30
2012,01,22,11,38,31.30
2012,01,22,11,39,37.20
2012,01,22,11,40,31.10
2012,01,22,11,41,28.30
2012,01,22,11,42,23.90
2012,01,22,11,43,21.90
2012,01,22,11,44,25.00
2012,01,22,11,45,28.40
2012,01,22,11,46,24.30
2012,01,22,11,47,20.20
2012,01,22,11,48,31.70
2012,01,22,11,49,28.80
2012,01,22,11,50,24.60
2012,01,22,11,51,31.50
2012,01,22,11,52,23.70
2012,01,22,11,53,27.90
2012,01,22,11,54,26.80
2012,01,22,11,55,26.30
2012,01,22,11,56,26.70
2012,01,22,11,57,27.20
2012,01,22,11,58,24.50
2012,01,22,11,59,26.70
2012,01,22,12,00,23.40
2012,01,22,12,01,37.20
2012,01,22,12,02,26.70
2012,01,22,12,03,26.50
2012,01,22,12,04,32.20
2012,01,22,12,05,19.40
2012,01,22,12,06,28.80
2012,01,22,12,07,33.60
2012,01,22,12,08,22.70
2012,01,22,12,09,22.20
2012,01,22,12,10,31.60
2012,01,22,12,11,24.70
2012,01,22,12,12,27.00
2012,01,22,12,13,30.60
2012,01,22,12,14,30.60
2012,01,22,12,15,30.60
2012,01,22,12,16,30.60
2012,01,22,12,17,30.60
2012,01,22,12,18,30.60
2012,01,22,12,19,30.60
2012,01,22,12,20,30.60
2012,01,22,12,21,30.60
2012,01,22,12,22,30.60
2012,01,22,13,30,22.50
2012,01,22,13,31,27.20
2012,01,22,13,32,23.30
2012,01,22,13,33,21.10
2012,01,22,13,34,21.40
2012,01,22,13,35,25.60
2012,01,22,13,36,28.40
2012,01,22,13,37,32.60
2012,01,22,13,38,28.30
2012,01,22,13,39,24.10
2012,01,22,13,40,23.90
2012,01,22,13,41,24.90
2012,01,22,13,42,31.40
2012,01,22,13,43,25.10
2012,01,22,13,44,20.80
2012,01,22,13,45,26.40
2012,01,22,13,46,30.30
2012,01,22,13,47,27.00
2012,01,22,13,48,25.70
2012,01,22,13,49,32.40
2012,01,22,13,50,36.70
2012,01,22,13,51,32.90
2012,01,22,13,52,33.60
2012,01,22,13,53,25.20
2012,01,22,13,54,20.20
2012,01,22,13,55,21.40
2012,01,22,13,56,20.30
2012,01,22,13,57,26.30
2012,01,22,13,58,29.70
2012,01,22,13,59,25.90
2012,01,22,14,00,28.30
2012,01,22,14,01,29.20
2012,01,22,14,02,29.40
2012,01,22,14,03,33.80
2012,01,22,14,04,27.40
2012,01,22,14,05,24.10
2012,01,22,14,06,30.70
2012,01,22,14,07,25.90
2012,01,22,14,08,21.60
2012,01,22,14,09,27.00
2012,01,22,14,10,30.60
2012,01,22,14,11,27.90
2012,01,22,14,12,21.30
2012,01,22,14,13,23.20
2012,01,22,14,14,21.30
2012,01,22,14,15,22.50
2012,01,22,14,16,22.50
2012,01,22,14,17,22.50
2012,01,22,14,18,22.50
2012,01,22,14,19,22.50
2012,01,22,14,20,22.50
2012,01,22,14,21,22.50
2012,01,22,14,22,22.50
2012,01,22,14,23,22.50
2012,01,22,14,24,22.50
2012,01,22,15,14,17.50
2012,01,22,15,15,11.20
2012,01,22,15,16,25.90
2012,01,22,15,17,20.40
2012,01,22,15,18,27.00
2012,01,22,15,19,29.00
2012,01,22,15,20,23.70
2012,01,22,15,21,22.10
2012,01,22,15,22,22.90
2012,01,22,15,23,23.70
2012,01,22,15,24,20.90
2012,01,22,15,25,20.30
2012,01,22,15,26,24.60
2012,01,22,15,27,19.60
2012,01,22,15,28,20.70
2012,01,22,15,29,21.50
2012,01,22,15,30,20.30
2012,01,22,15,31,16.60
2012,01,22,15,32,14.20
2012,01,22,15,33,13.80
2012,01,22,15,34,15.20
2012,01,22,15,35,17.90
2012,01,22,15,36,22.10
2012,01,22,15,37,20.10
2012,01,22,15,38,24.50
2012,01,22,15,39,25.80
2012,01,22,15,40,21.80
2012,01,22,15,41,27.60
2012,01,22,15,42,20.40
2012,01,22,15,43,22.20
2012,01,22,15,44,23.30
2012,01,22,15,45,22.50
2012,01,22,15,46,19.10
2012,01,22,15,47,21.30
2012,01,22,15,48,18.00
2012,01,22,15,49,17.20
2012,01,22,15,50,8.30
2012,01,22,15,51,5.50
2012,01,22,15,52,11.70
2012,01,22,15,53,9.50
2012,01,22,15,54,8.70
2012,01,22,15,55,2.50
2012,01,22,15,56,1.30
2012,01,22,15,57,1.50
2012,01,22,15,58,0.20
2012,01,22,15,59,0.00
2012,01,22,16,00,0.20
2012,01,22,16,01,0.80
2012,01,22,16,02,0.00
2012,01,22,16,03,1.80
2012,01,22,16,04,6.50
2012,01,22,16,05,6.40
2012,01,22,16,06,7.20
2012,01,22,16,07,7.10
2012,01,22,16,08,6.70
2012,01,22,16,09,7.40
2012,01,22,16,10,7.60
2012,01,22,16,11,2.00
2012,01,22,16,12,10.50
2012,01,22,16,13,7.70
2012,01,22,16,14,5.60
2012,01,22,16,15,3.70
2012,01,22,16,16,6.30
2012,01,22,16,17,8.60
2012,01,22,16,18,11.50
2012,01,22,16,19,8.40
2012,01,22,16,20,11.90
2012,01,22,16,21,10.20
2012,01,22,16,22,9.60
2012,01,22,16,23,9.60
2012,01,22,16,24,9.60
2012,01,22,16,25,9.60
2012,01,22,16,26,9.40
2012,01,22,16,27,11.40
2012,01,22,16,28,13.90
2012,01,22,16,29,10.70
2012,01,22,16,30,12.40
2012,01,22,16,31,12.50
2012,01,22,16,32,10.20
2012,01,22,16,33,11.30
2012,01,22,16,34,20.90
2012,01,22,16,35,16.20
2012,01,22,16,36,22.00
2012,01,22,16,37,20.00
2012,01,22,16,38,20.80
2012,01,22,16,39,18.20
2012,01,22,16,40,23.00
2012,01,22,16,41,15.30
2012,01,22,16,42,15.40
2012,01,22,16,43,15.30
2012,01,22,16,44,21.50
2012,01,22,16,45,21.80
2012,01,22,16,46,14.70
2012,01,22,16,47,15.20
2012,01,22,16,48,17.00
2012,01,22,16,49,13.50
2012,01,22,16,50,19.70
2012,01,22,16,51,17.10
2012,01,22,16,52,28.60
2012,01,22,16,53,24.80
2012,01,22,16,54,22.70
2012,01,22,16,55,23.10
2012,01,22,16,56,20.60
2012,01,22,16,57,24.10
2012,01,22,16,58,14.20
2012,01,22,16,59,14.10
2012,01,22,17,00,17.50
2012,01,22,17,01,24.30
2012,01,22,17,02,23.50
2012,01,22,17,03,20.40
2012,01,22,17,04,22.10
2012,01,22,17,05,22.40
2012,01,22,17,06,27.90
2012,01,22,17,07,27.40
2012,01,22,17,08,18.40
2012,01,22,17,09,16.60
2012,01,22,17,10,16.10
2012,01,22,17,11,19.50
2012,01,22,17,12,22.90
2012,01,22,17,13,29.10
2012,01,22,17,14,23.10
2012,01,22,17,15,21.80
2012,01,22,17,16,18.80
2012,01,22,17,17,15.50
2012,01,22,17,18,8.50
2012,01,22,17,19,8.30
2012,01,22,17,20,7.80
2012,01,22,17,21,5.30
2012,01,22,17,22,13.80
2012,01,22,17,23,12.00
2012,01,22,17,24,11.60
2012,01,22,17,25,9.00
2012,01,22,17,26,17.60
2012,01,22,17,27,19.40
2012,01,22,17,28,14.60
2012,01,22,17,29,20.80
2012,01,22,17,30,21.50
2012,01,22,17,31,19.10
2012,01,22,17,32,16.60
2012,01,22,17,33,18.00
2012,01,22,17,34,24.90
2012,01,22,17,35,22.00
2012,01,22,17,36,21.60
2012,01,22,17,37,20.50
2012,01,22,17,38,17.70
2012,01,22,17,39,20.80
2012,01,22,17,40,18.80
2012,01,22,17,41,36.80
2012,01,22,17,42,28.80
2012,01,22,17,43,27.00
2012,01,22,17,44,22.00
2012,01,22,17,45,20.70
2012,01,22,17,46,18.10
2012,01,22,17,47,19.00
2012,01,22,17,48,15.40
2012,01,22,17,49,25.00
2012,01,22,17,50,27.50
2012,01,22,17,51,21.90
2012,01,22,17,52,18.80
2012,01,22,17,53,21.50
2012,01,22,17,54,21.40
2012,01,22,17,55,22.30
2012,01,22,17,56,22.50
2012,01,22,17,57,19.10
2012,01,22,17,58,23.40
2012,01,22,17,59,19.70
2012,01,22,18,00,20.70
2012,01,22,18,01,33.70
2012,01,22,18,02,28.20
2012,01,22,18,03,16.70
2012,01,22,18,04,13.30
2012,01,22,18,05,15.00
2012,01,22,18,06,16.90
2012,01,22,18,07,20.40
2012,01,22,18,08,27.00
2012,01,22,18,09,24.00
2012,01,22,18,10,13.90
2012,01,22,18,11,14.20
2012,01,22,18,12,13.30
2012,01,22,18,13,15.50
2012,01,22,18,14,25.70
2012,01,22,18,15,38.10
2012,01,22,18,16,28.20
2012,01,22,18,17,28.10
2012,01,22,18,18,21.30
2012,01,22,18,19,19.30
2012,01,22,18,20,17.80
2012,01,22,18,21,29.70
2012,01,22,18,22,33.30
2012,01,22,18,23,19.00
2012,01,22,18,24,14.20
2012,01,22,18,25,19.20
2012,01,22,18,26,17.80
2012,01,22,18,27,11.30
2012,01,22,18,28,21.30
2012,01,22,18,29,17.70
2012,01,22,18,30,21.30
2012,01,22,18,31,15.70
2012,01,22,18,32,16.80
2012,01,22,18,33,8.90
2012,01,22,18,34,12.10
2012,01,22,18,35,14.20
2012,01,22,18,36,11.10
2012,01,22,18,37,9.00
2012,01,22,18,38,8.40
2012,01,22,18,39,9.10
2012,01,22,18,40,14.10
2012,01,22,18,41,13.90
2012,01,22,18,42,22.20
2012,01,22,18,43,21.20
2012,01,22,18,44,13.80
2012,01,22,18,45,9.00
2012,01,22,18,46,11.70
2012,01,22,18,47,11.30
2012,01,22,18,48,13.40
2012,01,22,18,49,7.60
2012,01,22,18,50,5.50
2012,01,22,18,51,9.90
2012,01,22,18,52,7.20
2012,01,22,18,53,13.40
2012,01,22,18,54,11.70
2012,01,22,18,55,10.70
2012,01,22,18,56,8.60
2012,01,22,18,57,13.40
2012,01,22,18,58,7.80
2012,01,22,18,59,4.30
2012,01,22,19,00,5.20
2012,01,22,19,01,3.80
2012,01,22,19,02,8.10
2012,01,22,19,03,12.20
2012,01,22,19,04,11.90
2012,01,22,19,05,14.50
2012,01,22,19,06,7.70
2012,01,22,19,07,7.80
2012,01,22,19,08,4.30
2012,01,22,19,09,3.70
2012,01,22,19,10,4.50
2012,01,22,19,11,11.30
2012,01,22,19,12,13.90
2012,01,22,19,13,19.30
2012,01,22,19,14,19.50
2012,01,22,19,15,21.30
2012,01,22,19,16,17.10
2012,01,22,19,17,15.80
2012,01,22,19,18,24.40
2012,01,22,19,19,30.30
2012,01,22,19,20,25.10
2012,01,22,19,21,26.20
2012,01,22,19,22,22.40
2012,01,22,19,23,20.40
2012,01,22,19,24,17.30
2012,01,22,19,25,16.50
2012,01,22,19,26,24.60
2012,01,22,19,27,20.80
2012,01,22,19,28,25.50
2012,01,22,19,29,25.70
2012,01,22,19,30,14.20
2012,01,22,19,31,22.80
2012,01,22,19,32,24.60